Flag for Malta Weather past 2 weeks in Valletta, Malta

Now
48 °F

Passing clouds.


Feels Like: 46 °F
Forecast: 56 / 61 °F
Wind: 6 mph from Northwest

Location: Luqa

Current Time: Feb 27, 2015 at 7:15:12 AM

Latest Report: Feb 27, 2015 at 6:45 AM


Visibility: N/A

Pressure: 29.65 "Hg

Humidity: 94%

Dew point: 46 °F

Location of VallettaLocation

Historic Weather in Valletta — Graph

°F

Valletta temperature yesterday

Maximum temperature yesterday: 55 °F (at 4:15 PM)
Minimum temperature yesterday: 50 °F (at 6:15 AM)
Average temperature yesterday: 52 °F

Past Weeks' High & Low Weather Summary

 TemperatureHumidityPressure
High61 °F (Feb 15, 1:15 PM)100% (Feb 14, 11:45 PM)30.39 "Hg (Feb 14, 11:45 PM)
Low43 °F (Feb 20, 4:15 AM)51% (Feb 19, 9:15 AM)29.45 "Hg (Feb 22, 8:45 AM)
Average54 °F79%29.94 "Hg
* Reported Feb 12 6:15 AM — Feb 27 6:15 AM, Valletta, Weather by CustomWeather, © 2015

Note: Actual official high and low records may vary slightly from our data, if they occured in-between our weather recording intervals... More about our weather records

Advertising

Valletta weather history for previous 24 hours

 ConditionsComfort  
Time TempWeatherWind HumidityBarometerVisibility
6:15 AM
Fri, Feb 27
48 °FPassing clouds.6 mph94%29.65 "HgN/A
5:15 AM45 °FPassing clouds.8 mph100%29.62 "HgN/A
4:15 AM46 °FClear.6 mph87%29.62 "Hg10 mi
3:45 AM46 °FCool.3 mph87%29.62 "Hg6 mi
3:15 AM50 °FCool.2 mph82%29.62 "Hg6 mi
2:45 AM50 °FCool.5 mph82%29.62 "Hg6 mi
2:15 AM50 °FCool.5 mph88%29.65 "Hg6 mi
1:45 AM50 °FPassing clouds.6 mph88%29.65 "Hg6 mi
1:15 AM50 °FLight rain. Partly cloudy.6 mph88%29.65 "Hg6 mi
12:45 AM52 °FPartly cloudy.9 mph82%29.65 "Hg6 mi
12:15 AM52 °FOvercast.8 mph82%29.68 "Hg6 mi
11:15 PM
Thu, Feb 26
50 °FPassing clouds.6 mph88%29.68 "Hg6 mi
10:45 PM50 °FPassing clouds.8 mph88%29.68 "Hg6 mi
10:15 PM52 °FSprinkles. Passing clouds.12 mph82%29.68 "Hg6 mi
9:45 PM52 °FSprinkles. Passing clouds.10 mph82%29.71 "HgN/A
9:15 PM52 °FLight rain. Passing clouds.9 mph82%29.71 "Hg4 mi
8:45 PM54 °FPassing clouds.14 mph77%29.71 "HgN/A
8:15 PM52 °FLight rain. Passing clouds.12 mph82%29.71 "Hg6 mi
7:45 PM52 °FPassing clouds.12 mph82%29.71 "HgN/A
7:15 PM52 °FPassing clouds.10 mph82%29.71 "HgN/A
6:45 PM50 °FPassing clouds.7 mph88%29.71 "HgN/A
6:15 PM50 °FPassing clouds.3 mph88%29.71 "HgN/A
5:45 PM50 °FSprinkles. Broken clouds.9 mph82%29.71 "HgN/A
5:15 PM54 °FScattered clouds.8 mph82%29.68 "HgN/A
4:45 PM54 °FScattered clouds.8 mph77%29.68 "HgN/A
4:15 PM55 °FScattered clouds.8 mph77%29.68 "HgN/A
3:45 PM54 °FPartly sunny.10 mph82%29.68 "HgN/A
3:15 PM54 °FBroken clouds.12 mph88%29.68 "HgN/A
2:45 PM52 °FScattered clouds.10 mph88%29.71 "HgN/A
2:15 PM50 °FBroken clouds.6 mph82%29.71 "HgN/A
1:45 PM52 °FSprinkles. Partly sunny.7 mph88%29.71 "Hg5 mi
1:15 PM50 °FPartly sunny.12 mph94%29.71 "Hg5 mi
12:45 PM50 °FLight rain. Partly sunny.14 mph88%29.74 "Hg4 mi
12:15 PM50 °FSprinkles. Partly sunny.12 mph88%29.74 "Hg4 mi
11:45 AM50 °FSprinkles. Partly sunny.17 mph94%29.74 "Hg4 mi
11:15 AM52 °FSprinkles. Partly sunny.18 mph88%29.74 "Hg4 mi
10:45 AM52 °FSprinkles. Partly sunny.17 mph88%29.74 "Hg4 mi
10:15 AM54 °FPartly sunny.18 mph77%29.74 "Hg6 mi
9:45 AM52 °FPartly sunny.17 mph88%29.71 "Hg5 mi
9:15 AM54 °FPartly sunny.20 mph77%29.71 "Hg4 mi
8:45 AM52 °FPartly sunny.17 mph82%29.71 "Hg6 mi
8:15 AM52 °FLots of rain. Partly sunny.17 mph82%29.71 "Hg5 mi
7:45 AM52 °FSprinkles. Partly sunny.17 mph82%29.71 "HgN/A
7:15 AM50 °FSprinkles. Partly sunny.14 mph88%29.71 "HgN/A
Weather by CustomWeather, © 2015

See weather overviewHow to use our weather pages